GFSNIL_sfc_wetblb_000.txt.gz
Wetbulb
58.37 57.38 56.12 57.08 57.14 56.54 56.14 56.52 57.08 58.31 58.66 59.36 59.70 60.28 59.50 60.32 60.60 59.79 59.31 59.79 59.69 59.58
58.89 58.06 57.56 57.18 57.46 57.10 56.98 58.20 58.29 58.60 58.24 59.46 59.97 59.63 60.57 60.82 60.50 61.14 60.84 61.00 60.68 60.78
60.78 59.46 58.71 57.78 57.36 57.40 57.08 57.57 58.33 58.65 58.91 59.27 59.59 59.71 60.59 59.92 59.68 61.44 61.81 62.12 62.00 61.63
60.23 59.99 59.61 58.86 57.28 57.78 57.59 58.11 58.85 59.15 59.51 59.65 59.60 59.63 59.77 59.22 60.00 61.19 61.46 62.22 61.77 60.69
60.32 59.63 59.25 58.50 58.24 58.34 58.12 58.60 59.13 59.95 60.19 60.23 59.68 59.86 60.47 60.21 60.50 60.32 60.34 61.18 61.88 61.42
58.96 58.60 59.58 58.59 58.67 58.76 58.69 59.00 60.46 60.43 60.41 60.69 60.61 60.24 60.26 59.95 59.29 60.17 60.66 61.06 61.81 61.85
58.06 58.39 58.72 58.87 58.76 58.86 59.37 59.17 59.95 60.29 61.47 61.79 61.02 61.29 60.92 59.98 58.69 58.77 59.92 61.34 61.81 62.18
57.44 58.26 59.49 59.46 58.42 58.69 58.63 59.11 60.16 60.54 61.16 61.20 61.24 62.19 61.30 60.76 60.95 60.29 59.24 59.52 61.21 60.97
57.94 60.53 59.33 59.49 57.73 59.22 58.71 58.60 58.82 59.62 59.76 59.79 61.39 51.99 54.21 59.51 61.11 61.02 60.50 59.76 60.84 60.81
55.56 59.60 57.93 58.40 57.04 57.72 55.82 55.13 56.05 56.05 56.19 55.22 57.36 50.49 52.17 55.33 61.46 61.00 60.63 60.27 60.74 62.03
55.47 59.34 56.63 55.90 56.22 56.32 54.47 54.45 53.19 53.00 52.94 53.53 54.61 48.59 50.16 53.12 61.54 61.00 60.09 60.01 59.66 60.57
55.31 58.11 57.27 55.50 55.89 55.49 54.46 53.46 53.08 52.52 51.64 51.23 49.88 46.95 48.00 56.25 59.63 59.22 57.82 57.48 57.08 57.19
54.83 57.33 57.80 55.67 56.06 56.09 54.84 54.00 53.71 52.44 51.77 49.80 47.69 45.73 48.65 54.75 57.77 55.56 53.83 53.62 54.64 49.93
54.55 55.97 58.20 56.79 57.00 56.82 56.36 55.29 52.84 52.37 50.98 50.65 48.21 44.46 45.47 48.93 54.96 54.02 51.33 52.70 52.44 49.62

GFSNIL_sfc_wetblb_003.txt.gz
Wetbulb
57.16 55.48 54.92 55.22 55.59 54.73 54.49 55.07 55.62 57.03 57.64 58.19 58.95 58.89 58.51 58.56 58.42 57.79 57.79 58.55 58.82 58.78
56.79 55.36 55.82 55.66 55.49 55.07 55.33 56.43 56.67 57.36 57.41 59.02 58.73 58.77 59.48 59.59 59.25 59.20 58.92 58.96 59.17 61.04
58.87 57.04 56.07 56.29 55.83 55.28 55.74 56.19 56.53 57.05 57.71 58.27 58.51 59.30 59.32 58.93 61.37 61.83 60.90 59.65 60.37 61.43
58.30 58.38 57.01 56.81 56.31 55.88 55.32 56.31 56.89 57.51 58.13 58.31 58.40 58.74 58.42 59.51 61.12 61.32 61.53 61.49 60.79 60.89
58.56 58.56 57.19 56.25 56.00 56.03 56.27 56.81 57.73 58.61 58.71 58.82 58.54 58.44 59.82 58.87 59.49 60.88 60.89 61.33 61.41 60.68
57.68 57.47 56.84 56.21 56.67 56.77 56.59 57.13 58.33 58.85 58.87 58.82 58.84 59.08 58.48 58.87 58.49 59.24 60.99 61.02 61.58 60.95
56.51 57.28 57.24 57.01 57.13 57.17 57.67 57.77 57.87 58.57 59.81 59.55 59.37 59.30 58.86 58.52 59.26 59.83 60.76 61.38 61.68 60.62
56.12 57.06 57.55 57.50 57.43 57.68 57.58 58.10 58.69 59.43 59.68 59.49 59.55 59.97 58.39 58.42 58.28 59.54 60.31 61.03 61.55 61.08
55.83 57.11 57.56 56.18 56.46 56.92 57.27 58.01 58.49 58.45 58.93 58.77 60.47 49.80 53.86 58.50 60.21 60.35 60.24 60.45 60.49 60.20
56.02 57.20 57.08 56.36 56.69 56.54 55.06 54.98 56.23 56.11 56.72 57.25 56.67 48.54 50.17 54.16 60.77 60.19 59.57 60.61 60.75 61.44
55.18 56.32 56.07 55.39 55.70 53.63 53.06 53.64 53.30 53.47 54.20 56.59 55.17 47.45 49.26 53.43 60.86 60.15 60.27 60.41 60.91 60.54
55.20 55.05 54.60 54.19 54.71 52.79 52.31 51.32 51.85 52.08 53.38 54.65 53.68 46.34 47.09 56.03 59.86 59.51 59.10 59.61 60.08 60.51
54.36 55.67 54.31 54.40 53.98 52.89 51.90 51.57 52.15 51.10 51.28 50.31 51.68 44.64 46.54 55.35 58.10 56.21 56.39 56.39 56.05 51.60
52.83 56.28 55.13 54.67 54.41 52.93 52.16 51.41 50.36 50.96 49.34 48.68 50.65 49.68 45.55 48.99 56.88 56.25 53.82 54.14 52.93 52.27

GFSNIL_sfc_wetblb_006.txt.gz
Wetbulb
57.58 56.57 56.19 56.57 56.67 55.97 56.17 56.93 57.87 58.68 59.18 59.69 60.44 59.96 59.83 59.99 59.61 59.36 60.41 60.30 60.72 60.57
57.52 56.36 56.90 57.23 56.83 56.23 56.67 57.72 58.38 58.80 59.48 60.13 60.21 60.64 60.37 60.82 60.82 60.71 60.72 60.84 60.94 61.50
57.58 57.15 57.20 57.21 56.85 56.61 57.25 58.27 58.42 58.77 59.47 60.07 60.65 60.72 60.76 61.27 62.07 62.28 60.95 61.83 62.18 61.79
58.37 57.68 57.10 57.48 56.92 56.90 57.08 57.67 58.34 59.22 59.63 59.81 59.95 60.03 61.23 61.39 61.68 61.71 61.46 61.68 61.79 60.96
59.06 58.21 57.40 57.30 56.90 57.37 57.14 58.05 58.59 59.82 59.87 59.74 59.70 60.69 61.01 60.89 61.79 61.60 61.26 61.16 61.33 60.66
58.34 57.43 56.96 56.64 57.08 57.49 57.69 58.17 59.36 59.88 59.87 59.74 60.20 59.70 59.65 59.99 60.81 61.56 61.55 61.87 61.31 61.00
57.62 57.88 57.19 57.50 57.70 57.79 58.54 58.81 59.29 60.04 60.28 60.10 60.22 59.79 59.57 60.00 60.73 61.44 61.63 61.57 61.44 61.38
57.18 57.91 57.71 57.94 57.95 58.43 58.90 59.21 59.76 60.33 60.11 60.42 60.24 59.76 59.42 59.46 59.98 61.23 61.44 61.54 61.51 61.59
57.40 57.95 57.79 57.73 58.01 58.30 58.53 59.00 59.86 60.09 60.31 59.98 60.45 49.01 53.18 57.96 59.70 61.31 61.71 60.24 60.44 60.22
57.61 57.79 57.09 57.43 57.69 57.54 57.57 58.02 58.64 58.53 59.49 59.84 58.25 46.66 49.01 53.18 60.97 60.75 61.03 60.78 60.98 61.24
57.37 57.54 56.89 57.18 57.03 55.78 55.86 56.92 56.74 56.42 58.18 58.62 56.49 47.02 47.93 52.28 61.19 60.52 61.28 61.77 61.81 61.52
56.55 56.88 56.32 56.59 56.08 54.87 54.98 54.58 55.17 55.66 58.11 58.46 56.31 45.57 46.48 56.71 61.06 60.94 61.33 61.53 60.99 60.89
56.65 56.99 56.05 56.08 55.50 54.73 54.44 54.79 54.36 54.66 57.00 54.25 57.30 44.84 46.84 56.09 59.99 58.85 59.13 59.49 59.12 52.98
56.09 56.12 56.39 55.60 55.19 54.46 53.74 53.78 53.33 52.86 52.74 55.07 55.59 53.47 44.84 49.56 59.45 58.17 57.77 58.14 57.30 58.51

GFSNIL_sfc_wetblb_009.txt.gz
Wetbulb
64.51 63.68 63.29 63.00 63.65 63.00 62.77 62.94 64.06 63.77 64.52 64.66 64.59 64.59 64.82 63.92 63.63 63.94 64.62 64.04 63.68 63.40
64.21 62.84 62.99 63.30 63.37 62.71 63.27 63.25 63.82 63.87 64.82 64.84 65.09 64.97 65.30 64.61 64.26 64.10 64.25 64.21 64.30 62.48
63.89 63.05 63.46 63.23 62.69 62.98 63.33 63.57 63.33 63.39 64.55 65.05 65.22 65.28 64.82 63.75 64.16 64.05 64.40 63.14 64.26 63.83
63.54 63.26 63.42 62.99 62.65 62.70 63.20 63.15 62.74 63.25 63.92 64.51 64.67 64.52 63.68 63.37 63.14 63.30 63.79 63.76 62.82 62.38
64.13 63.53 62.95 62.64 62.58 62.78 62.66 63.06 62.83 63.63 63.54 63.65 64.17 63.20 62.39 61.89 62.17 62.38 62.23 61.66 61.81 61.48
64.10 63.84 63.46 62.53 62.84 62.81 62.95 63.11 63.11 63.82 63.48 63.67 63.90 64.07 64.11 62.46 62.46 62.49 62.79 62.56 61.83 61.97
63.72 63.77 63.07 62.49 63.04 62.89 63.32 63.15 63.91 64.30 63.84 64.18 63.87 63.31 63.51 62.60 62.92 63.35 63.24 62.82 63.04 62.89
63.85 63.71 63.18 63.14 63.04 63.21 63.62 63.91 64.33 64.22 64.20 64.48 63.93 63.09 62.86 62.09 62.92 63.62 63.24 62.97 62.91 63.90
63.26 62.64 63.08 63.15 63.25 63.31 63.43 64.00 64.51 63.99 63.83 63.96 63.08 48.96 54.32 60.13 62.24 63.76 63.51 63.40 62.12 61.67
62.89 62.32 62.47 62.88 63.04 62.89 63.34 64.15 64.01 63.96 63.91 64.10 62.91 47.15 49.32 54.42 62.63 63.17 62.58 63.97 62.51 61.84
62.56 62.11 62.43 62.58 62.66 62.83 63.29 63.74 63.56 63.51 63.99 63.85 61.69 46.06 47.15 51.32 62.51 62.40 62.63 64.08 63.71 63.06
62.92 62.19 62.28 62.43 62.74 62.13 62.65 62.77 62.04 62.72 63.28 63.53 59.77 45.70 47.33 56.94 61.48 61.91 62.70 64.38 64.19 62.91
63.31 62.81 62.80 63.58 62.56 62.07 62.78 62.13 61.43 62.25 64.07 57.97 59.27 44.79 47.33 58.12 62.26 61.09 61.34 62.96 63.20 52.68
62.93 63.47 63.90 64.09 62.97 61.61 61.64 61.24 61.35 60.88 61.85 62.97 61.37 56.74 45.15 51.14 61.11 61.52 62.06 61.31 62.69 62.54

GFSNIL_sfc_wetblb_015.txt.gz
Wetbulb
67.75 66.52 66.12 66.48 65.70 66.25 65.58 66.13 66.77 66.46 66.61 66.46 66.72 66.58 66.95 65.31 65.43 66.34 66.45 64.94 66.09 66.24
67.32 66.77 66.62 66.87 66.99 65.47 66.31 65.49 65.94 66.10 66.40 66.24 66.40 66.49 66.74 67.12 66.23 65.42 65.92 65.71 66.16 66.02
66.92 66.85 66.90 66.59 65.87 65.99 66.38 65.80 65.78 65.81 66.36 66.41 66.14 66.36 66.43 66.53 66.02 65.59 66.30 65.64 65.92 65.63
66.59 66.79 66.61 65.89 65.39 65.80 65.61 66.17 64.62 64.77 65.59 65.60 66.18 66.58 66.55 65.45 64.82 64.62 65.30 64.70 63.73 64.13
66.30 66.62 66.49 65.69 65.10 65.92 65.17 65.46 64.67 65.12 64.72 64.81 65.76 66.19 64.75 63.44 63.78 63.98 63.81 64.44 63.75 62.59
65.84 66.45 66.38 65.48 65.75 65.18 65.09 64.50 64.72 64.85 64.03 64.67 65.12 64.63 64.70 63.90 63.33 64.94 63.53 61.99 61.82 63.44
66.10 66.31 66.04 65.96 65.52 64.76 64.58 64.13 64.61 64.97 64.80 65.06 65.15 64.76 64.76 65.19 64.90 64.10 63.16 62.58 62.54 62.72
66.03 66.23 65.46 64.97 65.05 64.91 64.64 64.64 65.38 64.99 64.82 65.29 65.39 64.28 64.80 64.99 65.34 65.07 64.85 64.48 63.23 63.57
65.47 65.18 65.17 65.15 64.94 64.87 64.83 65.26 65.39 64.75 64.91 65.28 63.35 52.34 53.88 59.67 65.28 65.11 64.41 62.89 62.45 63.89
64.85 64.43 64.53 64.94 64.68 64.92 66.16 67.00 65.54 65.76 65.23 65.21 63.55 50.84 50.66 52.40 65.37 65.90 65.09 64.87 63.75 63.61
64.37 64.26 64.70 64.91 64.65 65.39 67.29 66.33 66.05 66.11 65.93 65.44 61.83 49.21 48.85 49.92 65.85 65.97 65.11 65.20 65.02 64.99
65.02 64.80 64.82 64.65 64.83 66.01 66.94 67.00 66.74 66.41 65.48 64.86 62.82 48.31 47.76 54.78 65.75 65.03 64.22 64.38 65.82 65.65
65.62 65.40 65.09 65.78 66.14 66.59 66.53 65.47 65.48 65.49 65.75 59.84 63.59 47.58 47.04 54.86 65.05 65.10 64.92 65.60 62.79 51.50
65.95 65.75 66.29 65.93 66.35 66.43 65.94 65.70 65.94 65.04 65.51 65.47 63.61 60.16 47.58 49.94 63.88 64.84 64.24 63.45 63.54 61.96

GFSNIL_sfc_wetblb_021.txt.gz
Wetbulb
62.10 61.24 61.39 60.93 60.85 60.98 60.48 60.81 60.58 61.36 61.34 62.06 62.68 62.62 61.49 60.35 60.61 60.47 59.39 58.55 59.03 58.79
61.99 62.14 61.49 61.46 61.33 60.79 60.87 60.82 61.77 61.18 61.78 62.31 62.35 62.83 61.29 60.42 59.72 60.39 59.78 59.91 59.55 59.81
62.59 62.59 61.92 61.24 60.72 60.96 60.71 60.97 61.04 61.13 62.02 62.53 62.06 62.74 61.04 60.08 61.37 61.94 61.05 60.79 59.60 60.05
62.64 62.55 60.81 60.74 61.78 60.52 60.19 62.19 60.90 61.50 62.20 62.28 61.71 61.54 60.45 60.11 61.18 61.55 61.57 60.21 59.57 59.54
62.63 61.21 60.87 60.56 61.23 60.20 58.58 59.55 60.69 61.76 63.65 62.53 62.54 61.31 60.75 61.02 62.26 61.36 59.87 60.34 60.27 58.84
62.76 61.14 60.54 60.71 62.06 59.67 59.39 61.05 61.60 61.43 61.54 62.05 62.04 61.89 61.05 60.95 62.14 61.55 59.76 59.89 59.41 59.08
61.20 61.17 60.77 60.90 60.51 61.95 60.35 60.46 61.73 62.58 62.74 63.12 61.89 62.22 63.23 62.92 62.03 61.30 60.11 59.30 60.76 60.72
61.54 61.59 60.93 60.93 59.75 60.75 60.94 60.04 62.16 62.33 61.66 60.66 59.44 59.01 61.37 62.54 61.51 60.65 59.91 60.61 60.67 60.70
63.26 62.89 62.11 61.73 61.81 58.80 60.90 61.40 61.42 61.96 60.45 58.00 58.35 49.18 51.53 57.69 61.36 61.38 60.97 59.84 59.00 59.41
62.84 61.43 62.05 62.02 59.84 59.64 60.78 61.91 61.13 60.47 58.50 56.86 54.35 47.02 47.57 51.57 61.27 61.36 60.45 61.41 61.34 60.48
61.55 60.59 61.18 61.53 60.37 60.65 59.41 59.23 59.30 60.59 58.56 56.53 54.15 47.77 46.70 53.22 61.26 60.61 60.50 60.77 60.76 60.56
61.13 60.16 61.77 61.50 60.05 59.78 60.01 59.84 59.34 60.44 57.94 56.65 54.08 48.33 46.15 58.14 60.79 60.31 60.38 61.77 61.46 60.78
61.21 61.75 61.45 61.90 60.23 59.84 60.35 60.97 62.49 60.84 59.42 55.40 55.38 48.69 46.33 57.03 61.81 59.98 59.14 58.84 58.39 52.90
61.62 62.44 61.33 60.88 60.42 60.74 61.02 60.98 60.56 60.29 59.09 58.43 56.49 52.89 46.52 51.77 61.06 60.40 59.34 58.54 58.07 56.19

GFSNIL_sfc_wetblb_024.txt.gz
Wetbulb
60.52 60.25 59.87 59.56 59.59 59.49 59.23 59.30 59.86 59.93 59.65 60.07 61.03 61.46 60.90 59.37 59.21 59.30 58.84 57.53 57.67 57.13
60.89 60.63 59.90 59.27 59.61 59.33 59.21 59.87 59.45 60.42 60.57 61.09 61.97 61.84 61.35 59.94 59.56 59.52 58.72 59.00 58.52 58.15
60.88 60.76 60.48 60.22 59.74 59.73 58.64 59.81 60.37 60.16 60.80 61.41 61.31 61.11 60.35 59.40 60.29 60.15 60.33 59.88 60.00 59.41
60.44 60.49 60.07 59.19 59.58 59.46 58.65 59.60 59.66 60.51 61.15 61.19 60.32 60.00 59.40 60.48 61.17 61.02 60.43 59.78 58.98 58.90
60.03 59.33 59.36 59.54 59.49 59.08 58.40 59.42 59.68 60.30 61.88 61.86 61.19 60.20 59.97 60.88 61.51 59.68 59.75 59.61 58.71 57.97
61.14 59.12 58.90 59.17 59.58 57.99 57.66 58.61 61.37 59.65 60.97 61.17 61.24 60.65 60.68 61.44 61.82 59.73 59.25 59.19 58.68 57.75
59.69 59.64 58.92 59.24 58.81 58.59 58.54 60.24 60.47 61.64 62.44 61.74 61.09 61.84 62.67 62.74 61.38 59.95 59.09 58.82 59.06 58.88
60.82 60.20 59.06 59.33 59.07 61.47 60.81 61.00 61.87 61.88 60.22 59.04 59.03 57.76 59.26 61.22 59.94 59.33 59.00 59.58 60.55 61.31
61.94 60.36 60.17 58.87 57.91 58.48 59.17 60.07 61.03 60.18 58.49 57.19 57.11 47.47 50.08 57.63 59.52 59.97 59.49 58.08 59.38 59.36
61.21 60.43 60.02 60.40 59.03 57.53 60.15 60.24 60.72 57.68 56.21 55.24 53.96 46.46 47.00 53.35 59.94 59.12 59.42 60.08 59.70 58.89
60.13 59.59 59.56 58.79 57.20 57.83 58.29 58.49 58.23 56.37 55.95 54.86 54.57 46.64 47.00 52.44 59.63 59.24 60.29 60.60 59.28 58.41
59.85 58.78 59.72 59.92 57.82 57.61 58.12 57.22 57.49 57.45 55.79 55.12 54.26 46.09 47.36 56.23 59.04 59.32 60.38 61.02 59.73 59.28
59.69 59.78 59.96 60.60 58.59 58.34 58.16 59.27 59.82 57.87 56.49 53.77 55.26 45.55 46.46 55.95 59.94 59.09 59.56 60.00 57.66 51.61
59.59 59.31 59.39 58.87 58.52 58.89 58.94 59.15 59.66 57.71 56.15 55.59 54.97 52.43 46.82 51.17 58.96 59.54 59.31 58.84 57.67 55.37

GFSNIL_sfc_wetblb_030.txt.gz
Wetbulb
60.99 61.12 61.14 60.60 60.55 60.10 59.78 60.26 60.72 60.89 60.99 60.71 60.61 60.76 60.64 60.65 60.78 60.58 60.01 59.48 58.68 58.72
60.16 60.16 59.79 59.50 59.95 59.77 60.08 60.49 60.83 61.16 60.56 60.26 60.88 61.21 61.02 60.59 60.50 60.22 60.36 59.86 59.84 58.99
59.78 60.19 59.93 60.07 59.61 59.86 60.10 60.92 60.07 60.10 60.68 61.20 61.78 61.73 61.75 61.17 61.28 60.59 60.52 60.36 59.51 59.06
59.51 59.87 59.76 59.67 59.63 59.75 59.51 59.53 60.14 60.43 61.21 61.58 61.79 61.17 60.79 60.92 61.03 60.81 60.14 60.52 60.00 59.90
59.46 59.19 58.95 59.14 59.35 59.00 59.10 60.09 60.59 61.16 61.51 61.99 61.54 60.99 60.40 60.24 61.20 60.55 59.35 59.77 59.25 59.17
58.36 58.38 58.61 59.08 59.31 59.02 59.07 60.01 60.55 60.24 60.31 61.38 61.75 61.32 61.23 60.57 61.07 60.26 59.66 59.63 59.32 59.09
58.20 58.46 58.96 59.28 58.66 58.20 58.85 58.96 60.05 60.54 62.04 61.70 61.14 60.54 60.97 62.46 61.40 59.94 59.65 59.95 59.30 59.01
58.47 58.88 59.10 59.07 58.44 58.46 58.80 60.05 61.50 61.87 60.48 59.93 58.80 55.90 58.61 61.54 60.28 59.48 59.52 60.47 60.19 60.76
60.28 59.07 59.01 58.65 58.33 58.79 59.84 61.34 61.76 60.18 59.25 58.29 56.37 46.40 51.76 57.82 60.61 60.15 60.09 60.20 60.54 60.21
60.09 58.93 58.86 58.77 58.75 57.72 59.40 60.94 60.41 58.53 57.57 56.90 56.60 45.60 50.31 52.31 60.22 60.45 59.99 59.31 59.31 58.91
59.78 59.02 58.80 58.27 57.72 58.73 60.32 60.43 59.35 57.31 56.60 57.19 54.64 46.51 47.41 51.04 61.02 61.03 60.04 59.25 58.85 57.96
59.61 58.50 58.56 57.91 56.72 57.94 58.89 58.21 57.70 57.24 56.68 57.61 56.24 46.14 47.23 56.50 60.63 59.55 58.89 59.47 59.14 58.97
59.36 58.41 58.21 57.20 57.18 58.22 58.34 58.60 58.23 56.71 57.18 53.55 57.48 45.78 46.87 56.32 60.40 58.51 57.80 57.36 56.26 49.77
58.87 58.17 58.78 57.97 58.72 58.78 58.75 58.82 57.82 56.66 57.04 57.64 56.12 53.11 45.96 50.50 59.78 58.75 57.78 56.84 55.86 52.98

GFSNIL_sfc_wetblb_033.txt.gz
Wetbulb
68.61 68.33 68.39 68.40 67.78 66.73 66.72 67.19 68.16 67.70 67.19 66.71 66.59 65.96 66.11 65.19 65.20 65.29 64.44 64.21 64.10 63.19
67.75 68.04 67.26 67.66 67.99 67.00 67.60 67.04 67.05 66.95 66.48 66.56 66.30 65.93 66.14 65.10 65.44 65.38 63.00 64.38 64.93 63.82
67.17 67.31 67.10 67.19 66.81 67.12 67.31 67.02 66.75 66.33 66.10 65.79 65.60 66.27 66.75 65.98 66.13 65.38 62.03 62.47 64.59 64.44
66.18 66.40 66.76 66.64 66.57 66.66 66.74 66.39 65.53 65.26 65.43 65.72 66.22 66.49 66.23 66.06 65.71 62.76 61.60 60.97 63.51 63.78
66.16 66.25 66.20 65.92 66.18 66.11 65.60 65.37 65.31 65.29 65.53 65.55 65.42 65.72 65.26 64.51 62.99 61.24 60.38 59.87 61.30 63.17
65.39 65.77 65.72 65.36 65.35 65.29 64.83 65.28 65.29 65.28 64.72 64.35 65.25 65.27 65.24 62.72 61.47 60.99 61.09 60.84 61.01 63.05
64.81 65.14 65.17 65.10 64.77 64.76 65.03 65.00 64.96 64.72 65.02 65.26 65.36 64.26 64.02 63.49 62.51 61.37 61.40 60.54 62.27 63.24
64.62 65.10 64.79 64.22 64.12 64.44 64.80 64.57 64.53 65.01 64.94 64.62 63.20 61.17 62.00 63.29 62.73 61.37 59.73 61.74 60.52 62.97
64.12 64.30 64.36 64.29 63.88 63.73 63.86 65.44 64.12 64.57 64.00 62.84 62.35 46.84 51.82 59.53 62.10 60.90 60.81 60.91 62.28 61.94
63.93 63.49 63.64 63.24 63.46 63.53 64.29 64.06 62.83 64.29 63.50 62.84 62.88 46.55 48.92 52.91 62.81 62.36 60.96 60.79 59.97 59.82
63.80 63.26 63.10 63.08 63.18 63.95 64.00 63.29 61.85 63.76 63.16 63.50 59.18 47.11 46.75 51.10 62.68 62.11 61.32 60.24 59.82 58.94
63.78 63.08 62.87 62.70 63.60 64.87 64.50 61.76 62.48 63.40 62.78 63.55 60.18 46.20 46.93 56.49 61.86 61.04 59.91 59.71 59.83 58.94
63.64 63.21 62.71 63.35 63.40 64.66 65.45 64.09 63.10 62.27 62.93 55.96 60.46 45.48 47.29 56.41 61.01 59.02 58.00 57.64 57.26 50.90
63.84 63.48 63.84 63.69 63.83 64.29 64.19 63.69 63.04 62.28 63.03 61.52 59.26 55.88 45.29 50.91 60.78 59.04 58.63 57.70 56.28 53.04

GFSNIL_sfc_wetblb_036.txt.gz
Wetbulb
73.02 72.15 72.05 72.66 71.46 70.77 70.03 70.12 71.47 71.29 70.90 70.42 69.82 69.14 68.95 67.22 66.53 67.06 66.00 65.69 64.97 65.93
72.87 72.77 72.05 71.86 71.62 70.18 71.25 70.39 70.69 70.69 69.89 69.54 68.93 68.47 68.27 66.45 66.73 66.96 67.02 64.99 65.55 65.89
71.79 71.84 71.66 71.13 69.84 69.99 70.34 70.14 70.04 69.75 69.35 68.63 67.94 67.91 68.01 67.11 67.47 66.80 66.22 64.25 65.50 66.50
70.61 70.64 70.38 69.84 70.01 70.09 70.38 69.93 68.93 68.20 67.39 66.93 67.13 68.03 67.99 67.84 66.97 65.55 64.65 62.70 61.78 64.46
69.62 69.48 69.53 69.34 69.64 69.83 68.96 68.39 66.97 66.60 66.32 66.83 66.93 67.59 67.09 66.00 65.88 62.46 61.20 61.48 61.44 64.09
68.99 69.09 68.94 69.01 68.95 68.41 67.44 66.70 66.61 66.79 66.63 66.40 66.32 66.46 66.67 65.86 65.11 61.44 61.48 61.41 61.48 63.92
67.99 68.26 67.99 68.15 67.80 67.22 66.64 66.51 66.80 66.75 66.03 66.61 66.90 66.02 65.66 65.52 64.38 63.12 61.26 62.52 63.25 64.28
67.12 67.51 67.14 66.62 66.58 66.48 66.68 66.49 66.29 66.25 66.46 66.51 66.24 64.26 65.71 64.48 63.25 61.84 62.91 61.21 61.89 65.12
66.57 66.63 66.22 66.14 66.19 66.12 65.88 65.96 65.88 65.98 65.66 65.59 64.89 49.03 52.15 59.74 64.09 61.40 61.31 62.49 62.54 64.98
66.05 65.77 65.74 65.46 65.20 65.23 65.80 66.47 66.01 66.03 65.75 65.85 65.72 48.64 49.80 52.86 63.92 61.65 61.86 61.38 62.18 60.90
65.18 65.02 64.94 64.75 64.78 65.51 66.05 66.16 66.46 65.86 66.02 66.24 62.49 48.16 47.80 51.79 64.63 62.55 61.73 61.31 61.36 61.73
64.46 64.34 63.84 63.87 64.87 65.50 65.70 65.47 65.70 66.01 65.74 65.88 63.96 47.44 47.26 55.49 63.26 60.92 60.14 60.40 60.52 60.80
65.09 64.46 64.25 64.65 65.21 65.80 65.50 64.92 65.16 65.56 66.18 57.87 63.20 46.35 47.26 56.14 61.11 59.35 57.99 58.81 58.73 51.93
65.15 64.43 65.10 65.50 65.98 65.89 65.40 65.50 65.41 65.19 65.05 63.25 61.89 58.92 47.08 51.25 61.31 59.61 59.07 58.04 57.20 56.07